Погода в Новоалексеевском

Россия / Свердловская область     56°50′59″N   60°07′59″E
темп.,
°C
ветер,
м/с
пор.,
м/с
влажн.,
%
обл.,
%
осадки,
мм/ч
давл.,
гПа
погр.,
м
29 января, сб
сб2923:00−16ююз1198100 0.0 102415
02:00−17ююз1198100 0.0 102410
05:00−16вюв0098100 0.0 10239
08:00−15в1198100 0.0 102310
11:00−12вюв2591100 0.0 1022178
14:00−9юв368997 0.0 1020326
17:00−10вюв369597 0.0 1019215
20:00−12юв2896100 0.0 1019200
30 января, вс
вс3023:00−16вюв1110098 0.0 10199
02:00−19ююз1110088 0.0 10189
05:00−20юз1110094 0.0 10179
08:00−20зюз11100100 0.0 10179
11:00−13з1289100 0.0 101577
14:00−8зсз1380100 0.0 1014258
17:00−9ююз0094100 0.0 101410
20:00−11ю1197100 0.0 101511
31 января, пн
пн3123:00−16ююз119966 0.0 101510
02:00−17ююз119966 0.0 10159
05:00−14ююв119853 0.0 101511
08:00−17ю119871 0.0 10169
11:00−9юв119081 0.0 101571
14:00−5юв128991 0.1 1015272
17:00−7вюв119895 0.2 101610
20:00−10ююз119981 0.1 101810
1 февраля, вт
вт123:00−12зюз229870 0.1 102025
02:00−13юз229864 0.0 102125
05:00−15ююз219868 0.0 102212
08:00−12ю2595100 0.0 102283
11:00−5ю31193100 0.1 1021375
14:00−2ю3986100 0.1 1020558
17:00−4юв3693100 0.1 1020165
20:00−6юв2792100 0.0 1020163
2 февраля, ср
ср223:00−7ююв3889100 0.0 1019193
02:00−8ююв3893100 0.0 1019176
05:00−10ю2497100 0.0 101974
08:00−6ю2995100 0.2 1018273
11:00−3юз41086100 0.2 1018699
14:00−2юз498182 0.1 10191096
17:00−5юз3786100 0.1 1021178
20:00−7юз3992100 0.0 1024299